Location: Hackbridge
(51.3833°N, 0.1500°W)
Time: 01:45:42
(UTC+00:00)

Cosmos 1459 Rocket - Pass Details

Date: 13 October 2019
Orbit: 938 x 999 km, 83.0° (Epoch: 14 November)

Event Time Altitude Azimuth Distance (km) Brightness Sun altitude
Rises 18:58:20 0° 353° (N) 3,637 7.2 -17.3°
Reaches altitude 10° 19:01:01 10° 2° (N) 2,695 6.4 -17.7°
Maximum altitude 19:06:45 39° 70° (ENE) 1,425 4.4 -18.6°
Enters shadow 19:08:39 31° 107° (ESE) 1,619 4.6 -18.9°
